User: anonymous   Login
Location: Carnoy
(49.9849°N, 2.7558°E)
Time: 21:11:53
(UTC+00:00)
Language:

STARLINK-1083 - Orbit

View from above orbital plane
View from above orbital plane
View from above satellite
View from above satellite

Ground track
Ground track

The orbit data is extracted from the following two-line orbital elements,

1 44939U 20001AB  20088.58336806 -.00046406  00000-0 -26158-2 0  9995
2 44939  52.9992 357.8579 0001417  69.4763  75.3974 15.12759379 12758
Epoch (UTC): 28 March 2020 14:00:03
Eccentricity: 0.0001417
inclination: 52.9992°
perigee height: 527 km
apogee height: 529 km
right ascension of ascending node: 357.8579°
argument of perigee: 69.4763°
revolutions per day: 15.12759379
mean anomaly at epoch: 75.3974°
orbit number at epoch: 1275

The dashed part of the orbit path shows where the satellite is in the earth's shadow,  

DLR